Temp
-15 -15 -16 -16 -15 -16 -16 -16 -16 -16 -16 -17 -17 -18 -18 -18 -18 -18 -19 -19 -20 -21 -21 -21 -22 -22 -22
-15 -16 -16 -16 -16 -16 -16 -16 -16 -17 -17 -17 -18 -18 -18 -18 -18 -19 -19 -20 -20 -21 -21 -21 -22 -22 -23
-15 -15 -16 -16 -17 -17 -16 -16 -17 -17 -18 -18 -18 -19 -18 -19 -19 -20 -20 -20 -21 -21 -22 -22 -22 -23 -23
-15 -15 -16 -17 -17 -17 -17 -17 -17 -18 -18 -18 -18 -18 -19 -19 -20 -20 -21 -20 -21 -22 -22 -22 -23 -23 -23
-16 -16 -17 -17 -17 -17 -17 -17 -18 -18 -18 -19 -19 -19 -19 -20 -20 -21 -21 -21 -22 -22 -22 -23 -23 -23 -23
-16 -17 -17 -17 -17 -17 -17 -18 -18 -18 -19 -19 -19 -19 -20 -20 -21 -21 -21 -21 -22 -22 -23 -23 -23 -24 -24
-16 -17 -17 -17 -17 -17 -17 -18 -18 -19 -19 -19 -19 -20 -20 -21 -21 -21 -21 -22 -23 -23 -23 -23 -24 -24 -25
-17 -16 -17 -17 -17 -17 -17 -18 -18 -19 -19 -19 -20 -20 -21 -21 -21 -21 -21 -22 -23 -23 -23 -24 -24 -24 -26
-17 -17 -17 -17 -18 -18 -18 -18 -19 -19 -19 -20 -20 -21 -21 -21 -21 -21 -22 -23 -23 -23 -23 -24 -24 -25 -27
-17 -17 -16 -17 -18 -18 -18 -19 -19 -19 -19 -20 -20 -21 -21 -21 -21 -22 -22 -23 -23 -23 -24 -24 -24 -25 -28
-18 -17 -18 -18 -18 -18 -18 -19 -19 -19 -20 -20 -21 -21 -22 -22 -22 -22 -23 -24 -24 -23 -24 -24 -25 -26 -29
-18 -18 -18 -19 -19 -18 -19 -19 -19 -20 -20 -21 -21 -22 -22 -22 -22 -23 -23 -24 -24 -24 -24 -25 -25 -27 -29
-18 -18 -18 -18 -19 -19 -19 -19 -20 -21 -21 -21 -22 -22 -22 -22 -22 -23 -24 -24 -24 -24 -25 -25 -26 -27 -29
-19 -19 -19 -18 -19 -19 -19 -20 -21 -21 -21 -22 -22 -22 -22 -22 -23 -24 -24 -24 -24 -25 -25 -25 -26 -29 -30
-19 -18 -18 -19 -19 -19 -20 -20 -21 -21 -22 -22 -21 -22 -22 -22 -23 -24 -24 -25 -25 -25 -25 -26 -27 -29 -31
-19 -19 -19 -19 -20 -20 -20 -21 -21 -22 -22 -22 -21 -22 -22 -23 -24 -24 -24 -25 -25 -25 -26 -26 -27 -30 -31
-19 -19 -20 -20 -20 -20 -21 -21 -21 -22 -22 -21 -22 -23 -24 -24 -24 -25 -25 -25 -25 -26 -26 -26 -28 -31 -31
Height
5765 5761 5757 5752 5747 5742 5736 5730 5724 5718 5711 5703 5694 5686 5677 5668 5658 5649 5638 5627 5616 5604 5594 5583 5572 5559 5547
5755 5751 5747 5742 5737 5731 5725 5720 5714 5707 5700 5692 5684 5676 5667 5657 5648 5638 5628 5618 5607 5596 5585 5577 5563 5550 5537
5746 5742 5737 5732 5727 5722 5717 5711 5704 5697 5690 5683 5675 5667 5657 5647 5637 5628 5618 5607 5599 5588 5577 5567 5554 5542 5529
5737 5732 5727 5721 5716 5712 5706 5700 5694 5688 5681 5672 5664 5656 5647 5637 5628 5618 5608 5598 5589 5580 5569 5557 5545 5533 5519
5727 5722 5718 5712 5707 5702 5696 5689 5683 5675 5669 5662 5656 5647 5637 5627 5617 5608 5599 5589 5579 5569 5560 5548 5537 5523 5509
5716 5713 5708 5703 5698 5692 5686 5679 5673 5666 5658 5651 5643 5635 5625 5616 5608 5600 5590 5580 5570 5560 5551 5540 5528 5514 5501
5706 5702 5697 5692 5687 5682 5675 5669 5662 5653 5646 5639 5632 5625 5616 5607 5599 5590 5581 5571 5561 5552 5543 5533 5520 5506 5493
5695 5690 5686 5680 5675 5669 5663 5658 5652 5643 5635 5627 5621 5614 5606 5598 5588 5581 5572 5562 5552 5543 5533 5522 5512 5499 5487
5683 5679 5673 5667 5662 5657 5650 5645 5639 5632 5623 5616 5611 5602 5596 5589 5580 5570 5562 5553 5544 5535 5525 5515 5503 5491 5482
5671 5666 5662 5655 5650 5644 5638 5631 5625 5620 5612 5605 5598 5592 5584 5577 5571 5560 5552 5545 5535 5527 5517 5507 5496 5484 5476
5658 5654 5648 5644 5637 5631 5626 5618 5612 5605 5600 5593 5586 5579 5573 5565 5559 5550 5541 5534 5527 5517 5508 5498 5488 5478 5470
5644 5640 5634 5628 5623 5618 5612 5606 5600 5594 5589 5582 5575 5569 5563 5555 5548 5539 5533 5525 5518 5509 5500 5491 5481 5472 5465
5629 5625 5620 5616 5611 5606 5600 5594 5587 5582 5577 5572 5566 5559 5554 5547 5539 5530 5521 5516 5510 5502 5493 5483 5473 5465 5460
5614 5608 5604 5600 5597 5593 5586 5580 5576 5571 5565 5560 5554 5548 5542 5536 5529 5521 5514 5507 5500 5491 5483 5475 5465 5458 5454
5596 5592 5589 5586 5582 5578 5573 5568 5564 5560 5555 5549 5544 5538 5531 5525 5518 5511 5505 5498 5491 5482 5473 5465 5457 5451 5448
5581 5578 5574 5571 5567 5564 5559 5556 5552 5547 5544 5538 5533 5528 5522 5516 5509 5502 5496 5489 5482 5473 5464 5455 5449 5444 5442
5565 5563 5560 5556 5553 5550 5547 5544 5540 5536 5532 5527 5521 5515 5509 5504 5500 5493 5486 5480 5471 5464 5455 5448 5440 5437 5436
Wind_Speed
42 43 45 47 48 49 50 52 54 56 60 61 63 63 67 70 75 75 72 72 70 66 68 69 71 75 81
43 45 47 49 49 49 52 56 54 55 60 65 64 64 71 71 74 73 70 69 64 65 65 68 71 76 79
44 47 48 49 51 50 55 59 56 60 64 64 66 65 71 71 72 68 66 67 65 63 65 68 72 74 77
46 48 47 50 52 54 58 59 60 60 60 63 61 70 71 72 69 65 65 64 62 62 64 67 70 72 75
46 43 49 50 54 56 58 62 58 61 61 60 63 68 71 71 65 64 65 61 61 61 63 65 69 74 73
48 46 48 53 57 58 65 63 62 61 62 64 63 68 71 65 60 61 62 62 59 59 61 65 70 74 70
49 58 54 55 59 65 66 64 66 63 63 64 66 66 63 58 58 60 61 60 57 58 60 64 68 71 63
48 55 58 60 60 63 65 66 61 64 64 63 62 63 58 57 58 59 60 57 55 56 58 62 66 69 56
46 60 61 63 59 61 66 62 65 64 65 62 62 59 56 57 58 58 57 54 53 54 58 60 65 65 45
60 54 63 68 63 67 60 62 63 67 60 59 58 56 54 53 55 55 56 53 52 53 57 60 63 61 38
54 62 68 64 65 63 68 64 67 63 56 55 54 52 52 54 57 55 53 51 51 53 55 59 63 56 34
54 61 61 61 72 68 69 61 60 52 53 50 51 49 52 55 57 56 52 50 52 53 54 58 61 51 29
61 61 71 72 66 70 60 58 52 49 50 50 49 50 52 57 57 54 49 50 52 54 55 58 58 46 26
69 73 64 64 70 61 59 51 49 50 50 49 49 51 55 57 55 52 48 50 52 54 55 58 55 36 25
65 65 63 62 62 58 51 47 48 48 45 47 51 51 54 57 53 48 47 49 50 53 55 58 53 35 23
67 64 58 56 57 53 48 48 46 44 47 52 52 54 54 53 51 47 47 49 52 53 56 58 51 30 23
62 59 59 58 51 51 49 49 48 48 51 54 52 53 51 48 47 45 47 48 52 53 57 58 44 26 22
Wind_Direction
303 303 302 302 304 307 310 314 313 310 313 319 319 319 321 321 327 327 326 327 327 326 326 327 330 332 334
302 302 302 303 306 308 311 315 310 310 314 319 319 316 321 320 322 325 325 326 326 324 325 326 331 335 337
303 303 301 302 301 301 309 313 310 310 315 318 320 316 320 319 322 325 325 327 323 323 325 329 334 336 338
306 308 305 298 294 298 311 314 311 311 314 315 316 318 320 318 323 323 325 325 321 324 327 332 335 337 339
299 306 306 296 292 304 311 313 310 314 313 313 313 317 316 319 322 321 324 323 321 325 329 332 333 336 336
288 297 303 302 300 302 307 310 309 312 313 310 312 316 312 319 320 323 324 323 322 326 331 332 332 337 334
296 293 295 295 294 297 305 309 311 309 311 312 308 311 314 317 320 323 325 322 323 327 331 332 334 337 332
294 297 298 298 300 301 305 305 309 309 309 308 308 312 316 317 321 324 322 323 324 327 329 332 335 336 329
294 297 297 294 303 300 306 307 305 307 307 306 309 313 314 320 323 321 322 323 325 327 330 333 334 334 325
297 297 294 294 303 305 306 306 305 307 303 307 309 310 316 323 323 322 324 323 325 328 331 331 333 333 321
295 288 290 291 299 307 303 305 303 302 303 305 307 312 318 322 323 324 322 322 326 329 330 330 333 332 315
287 290 289 297 305 296 303 302 302 302 305 304 309 315 319 320 320 322 322 323 326 327 328 330 333 330 307
286 290 286 294 297 295 296 298 297 303 304 306 312 317 320 321 319 320 321 324 325 326 328 330 332 326 303
287 287 289 291 292 294 292 294 299 302 305 310 315 317 317 319 318 318 321 324 324 326 327 329 331 318 298
290 283 290 288 291 290 295 297 300 303 307 313 317 315 316 315 315 318 321 323 323 323 326 329 330 314 289
280 285 287 288 285 288 290 295 297 303 308 311 315 314 312 314 316 317 319 321 323 323 325 329 327 307 286
280 281 286 284 286 288 290 297 299 305 307 310 312 311 312 313 313 315 319 322 321 324 325 328 320 297 283